Weather History for Brownwood, TX

Change the Weather History Date:

Sunday, March 31, 2013

  Actual Average (KABI) Record (KABI)
Temperature  
Mean Temperature 68 °F 60 °F  
Max Temperature 77 °F 73 °F 97 °F (1974)
Min Temperature 59 °F 48 °F 27 °F (1926)
Degree Days  
Heating Degree Days 0 6  
Month to date heating degree days 298  
Since 1 July heating degree days 2431  
Cooling Degree Days 3 2  
Month to date cooling degree days 29  
Year to date cooling degree days 34  
Growing Degree Days 18 (Base 50)    
Moisture  
Dew Point 55 °F    
Average Humidity 68    
Maximum Humidity 100    
Minimum Humidity 36    
Precipitation  
Precipitation 0.00 in 0.05 in 0.93 in (1916)
Month to date precipitation 1.74  
Year to date precipitation 4.12  
Sea Level Pressure  
Sea Level Pressure 29.94 in    
Wind  
Wind Speed 5 mph (ENE)    
Max Wind Speed 15 mph    
Max Gust Speed 29 mph    
Visibility 10 miles    
Events Rain    
T = Trace of Precipitation, MM = Missing Value Source: NWS Daily Summary

Daily Weather History Graph

Daily Weather History Graph

Search for Another Location

Airport:

Trip Planner

Search our weather history database for the weather conditions in past years. The results will help you decide how hot, cold, wet, or windy it might be!

Date:

Astronomy

Mar. 31, 2013 Rise Set
Actual Time 7:25 AM CDT 7:54 PM CDT
Civil Twilight 7:00 AM CDT 8:19 PM CDT
Nautical Twilight 6:31 AM CDT 8:48 PM CDT
Astronomical Twilight 6:02 AM CDT 9:17 PM CDT
Moon No Moon Rise 10:29 AM CDT (3/31)
Length of Visible Light 13h 18m
Length of Day
12h 29m
Waning Gibbous, 77% of the Moon is Illuminated
Mar 31
Waning Gibbous
Apr 2
Last Quarter
Apr 10
New
Apr 18
First Quarter
Apr 25
Full

Hourly Weather History & Observations

Time (CDT) Temp. Dew Point Humidity Pressure Visibility Wind Dir Wind Speed Gust Speed Precip Events Conditions
12:15 AM 64.4 °F 60.8 °F 88% 29.91 in 10.0 mi Calm Calm - N/A   Clear
12:35 AM 64.4 °F 59.0 °F 83% 29.91 in 10.0 mi Calm Calm - N/A   Clear
12:55 AM 62.6 °F 59.0 °F 88% 29.91 in 10.0 mi Calm Calm - N/A   Clear
1:15 AM 62.6 °F 59.0 °F 88% 29.90 in 10.0 mi South 3.5 mph - N/A   Clear
1:35 AM 64.4 °F 59.0 °F 83% 29.90 in 10.0 mi South 3.5 mph - N/A   Clear
1:55 AM 64.4 °F 59.0 °F 83% 29.90 in 10.0 mi SSE 4.6 mph - N/A   Clear
2:15 AM 64.4 °F 59.0 °F 83% 29.90 in 10.0 mi Calm Calm - N/A   Clear
2:35 AM 64.4 °F 59.0 °F 83% 29.90 in 10.0 mi SSE 4.6 mph - N/A   Clear
2:55 AM 64.4 °F 59.0 °F 83% 29.89 in 10.0 mi SSE 5.8 mph - N/A   Clear
3:15 AM 64.4 °F 59.0 °F 83% 29.89 in 10.0 mi SSE 4.6 mph - N/A   Clear
3:35 AM 64.4 °F 59.0 °F 83% 29.88 in 10.0 mi SSE 4.6 mph - N/A   Clear
3:55 AM 64.4 °F 59.0 °F 83% 29.88 in 10.0 mi SE 3.5 mph - N/A   Clear
4:15 AM 62.6 °F 59.0 °F 88% 29.87 in 10.0 mi SE 4.6 mph - N/A   Clear
4:35 AM 62.6 °F 59.0 °F 88% 29.87 in 10.0 mi SSE 4.6 mph - N/A   Clear
4:55 AM 62.6 °F 59.0 °F 88% 29.87 in 10.0 mi Calm Calm - N/A   Clear
5:15 AM 60.8 °F 57.2 °F 88% 29.88 in 10.0 mi NW 3.5 mph - N/A   Clear
5:35 AM 60.8 °F 59.0 °F 94% 29.88 in 10.0 mi Calm Calm - N/A   Clear
5:55 AM 59.0 °F 57.2 °F 94% 29.88 in 10.0 mi Calm Calm - N/A   Clear
6:15 AM 59.0 °F 59.0 °F 100% 29.89 in 9.0 mi SE 3.5 mph - N/A   Scattered Clouds
6:35 AM 59.0 °F 59.0 °F 100% 29.89 in 10.0 mi ENE 4.6 mph - N/A   Clear
6:55 AM 60.8 °F 59.0 °F 94% 29.89 in 10.0 mi SSE 5.8 mph - N/A   Clear
7:15 AM 62.6 °F 59.0 °F 88% 29.89 in 10.0 mi SSE 3.5 mph - N/A   Clear
7:35 AM 62.6 °F 59.0 °F 88% 29.90 in 7.0 mi Calm Calm - N/A   Clear
7:55 AM 62.6 °F 59.0 °F 88% 29.90 in 10.0 mi SSE 4.6 mph - N/A   Clear
8:15 AM 62.6 °F 60.8 °F 94% 29.91 in 10.0 mi Calm Calm - N/A   Clear
8:35 AM 62.6 °F 60.8 °F 94% 29.91 in 10.0 mi SE 4.6 mph - N/A   Clear
8:55 AM 64.4 °F 59.0 °F 83% 29.96 in 10.0 mi NW 6.9 mph 28.8 mph N/A   Partly Cloudy
9:15 AM 66.2 °F 59.0 °F 78% 29.96 in 10.0 mi North 4.6 mph - N/A Rain Light Rain
9:35 AM 66.2 °F 60.8 °F 83% 29.95 in 10.0 mi Calm Calm - N/A   Partly Cloudy
9:55 AM 68.0 °F 59.0 °F 73% 29.97 in 10.0 mi North 15.0 mph 24.2 mph N/A   Scattered Clouds
10:15 AM 68.0 °F 59.0 °F 73% 29.99 in 10.0 mi North 13.8 mph 19.6 mph N/A   Mostly Cloudy
10:35 AM 68.0 °F 59.0 °F 73% 29.99 in 10.0 mi NE 11.5 mph 23.0 mph N/A   Overcast
10:55 AM 68.0 °F 59.0 °F 73% 30.00 in 10.0 mi NNE 15.0 mph 21.9 mph N/A   Scattered Clouds
11:15 AM 66.2 °F 57.2 °F 73% 30.00 in 10.0 mi NE 13.8 mph 23.0 mph N/A   Clear
11:35 AM 68.0 °F 55.4 °F 64% 30.00 in 10.0 mi NE 11.5 mph 24.2 mph N/A   Clear
11:55 AM 68.0 °F 55.4 °F 64% 30.00 in 10.0 mi ENE 13.8 mph - N/A   Clear
12:15 PM 71.6 °F 55.4 °F 57% 30.00 in 10.0 mi NE 10.4 mph 21.9 mph N/A   Clear
12:35 PM 71.6 °F 53.6 °F 53% 30.01 in 10.0 mi NE 12.7 mph 16.1 mph N/A   Clear
12:55 PM 71.6 °F 51.8 °F 50% 30.00 in 10.0 mi NE 12.7 mph 17.3 mph N/A   Clear
1:15 PM 73.4 °F 51.8 °F 47% 30.00 in 10.0 mi NE 10.4 mph 17.3 mph N/A   Clear
1:35 PM 75.2 °F 51.8 °F 44% 29.98 in 10.0 mi NE 11.5 mph 18.4 mph N/A   Clear
1:55 PM 75.2 °F 51.8 °F 44% 29.98 in 10.0 mi ENE 13.8 mph 19.6 mph N/A   Clear
2:15 PM 77.0 °F 50.0 °F 39% 29.97 in 10.0 mi NE 11.5 mph 17.3 mph N/A   Clear
2:35 PM 77.0 °F 50.0 °F 39% 29.96 in 10.0 mi NNE 11.5 mph 18.4 mph N/A   Clear
2:55 PM 77.0 °F 50.0 °F 39% 29.96 in 10.0 mi ENE 12.7 mph 17.3 mph N/A   Clear
3:15 PM 77.0 °F 50.0 °F 39% 29.96 in 10.0 mi NE 8.1 mph 16.1 mph N/A   Clear
3:35 PM 77.0 °F 50.0 °F 39% 29.95 in 10.0 mi ENE 10.4 mph - N/A   Clear
3:55 PM 77.0 °F 50.0 °F 39% 29.94 in 10.0 mi East 11.5 mph - N/A   Clear
4:15 PM 77.0 °F 50.0 °F 39% 29.93 in 10.0 mi East 9.2 mph - N/A   Clear
4:35 PM 77.0 °F 50.0 °F 39% 29.93 in 10.0 mi NE 8.1 mph 18.4 mph N/A   Clear
4:55 PM 77.0 °F 51.8 °F 41% 29.92 in 10.0 mi ENE 11.5 mph - N/A   Clear
5:15 PM 77.0 °F 50.0 °F 39% 29.92 in 10.0 mi East 8.1 mph - N/A   Partly Cloudy
5:35 PM 77.0 °F 50.0 °F 39% 29.91 in 10.0 mi ENE 8.1 mph - N/A   Clear
5:55 PM 77.0 °F 50.0 °F 39% 29.91 in 10.0 mi ENE 8.1 mph - N/A   Clear
6:15 PM 77.0 °F 50.0 °F 39% 29.91 in 10.0 mi ENE 8.1 mph - N/A   Clear
6:35 PM 77.0 °F 48.2 °F 36% 29.92 in 10.0 mi NE 6.9 mph - N/A   Clear
7:15 PM 75.2 °F 50.0 °F 41% 29.93 in 10.0 mi NE 8.1 mph - N/A   Clear
7:35 PM 73.4 °F 50.0 °F 44% 29.94 in 10.0 mi NE 6.9 mph - N/A   Clear
8:15 PM 69.8 °F 51.8 °F 53% 29.95 in 10.0 mi NE 6.9 mph - N/A   Clear
8:35 PM 68.0 °F 53.6 °F 60% 29.95 in 10.0 mi NE 5.8 mph - N/A   Clear
8:55 PM 66.2 °F 53.6 °F 64% 29.96 in 10.0 mi ENE 5.8 mph - N/A   Clear
9:15 PM 66.2 °F 53.6 °F 64% 29.97 in 10.0 mi NE 4.6 mph - N/A   Clear
9:35 PM 66.2 °F 53.6 °F 64% 29.98 in 10.0 mi NE 4.6 mph - N/A   Clear
9:55 PM 64.4 °F 53.6 °F 68% 29.98 in 10.0 mi ENE 5.8 mph - N/A   Clear
10:15 PM 64.4 °F 53.6 °F 68% 29.99 in 10.0 mi NE 4.6 mph - N/A   Clear
10:35 PM 62.6 °F 53.6 °F 72% 30.00 in 10.0 mi ENE 5.8 mph - N/A   Clear
10:55 PM 60.8 °F 53.6 °F 77% 30.00 in 10.0 mi ENE 3.5 mph - N/A   Clear
11:15 PM 62.6 °F 53.6 °F 72% 30.00 in 10.0 mi ENE 3.5 mph - N/A   Clear
11:55 PM 62.6 °F 53.6 °F 72% 30.01 in 10.0 mi Calm Calm - N/A   Clear